When you browse on this site, cookies collect data to enhance your experience and personalize the content and advertising you see.
Visit our Privacy Policy to learn more. By continuing to use the site, you agree to this use of cookies and data.
  • In Hungary
  • List of Countries
  • For 7 days
  • Water Temperature
  • Satellite Maps
  • Weather Map
  • News
  • Weather Widgets
  • user-avatar
    Login

    Hourly Weather Kipushi

    Today, 23 February, Saturday

    Time Temperature Precipitation Wind Pressure Humidity
    00:00 +19°C° 0.8 mm 1 mps 650 mmHg 98%
    01:00 +19°C° 0.8 mm 1 mps 649 mmHg 98%
    02:00 +19°C° 0 mm 1 mps 649 mmHg 98%
    03:00 +19°C° 0.3 mm 1 mps 649 mmHg 98%
    04:00 +18°C° 0.3 mm 1 mps 649 mmHg 98%
    05:00 +18°C° 0.3 mm 1 mps 649 mmHg 99%
    06:00 +19°C° 0.2 mm 1 mps 649 mmHg 98%
    07:00 +19°C° 0.2 mm 1 mps 650 mmHg 98%
    08:00 +19°C° 0 mm 1 mps 651 mmHg 97%
    09:00 +20°C° 0.4 mm 1 mps 651 mmHg 95%
    10:00 +21°C° 0.4 mm 1 mps 651 mmHg 93%
    11:00 +22°C° 0.4 mm 1 mps 651 mmHg 92%
    12:00 +22°C° 1 mm 1 mps 650 mmHg 92%
    13:00 +23°C° 1 mm 1 mps 650 mmHg 91%
    14:00 +21°C° 1 mm 0 mps 649 mmHg 91%
    15:00 +21°C° 1.6 mm 0 mps 649 mmHg 93%
    16:00 +20°C° 1.6 mm 0 mps 648 mmHg 94%
    17:00 +19°C° 1.6 mm 0 mps 648 mmHg 96%
    18:00 +19°C° 1 mm 0 mps 648 mmHg 96%
    19:00 +18°C° 1 mm 0 mps 648 mmHg 96%
    20:00 +17°C° 1 mm 0 mps 648 mmHg 97%
    21:00 +17°C° 0.2 mm 0 mps 648 mmHg 97%
    22:00 +17°C° 0.2 mm 0 mps 649 mmHg 97%
    23:00 +17°C° 0.2 mm 0 mps 649 mmHg 97%

    Tomorrow, 24 February, Sunday

    Time Temperature Precipitation Wind Pressure Humidity
    00:00 +17°C° 0.3 mm 0 mps 649 mmHg 97%
    01:00 +17°C° 0.3 mm 0 mps 649 mmHg 97%
    02:00 +16°C° 0.3 mm 0 mps 648 mmHg 97%
    03:00 +16°C° 0.3 mm 0 mps 648 mmHg 97%
    04:00 +16°C° 0.3 mm 0 mps 648 mmHg 97%
    05:00 +16°C° 0.3 mm 0 mps 648 mmHg 98%
    06:00 +17°C° 0.3 mm 0 mps 649 mmHg 97%
    07:00 +17°C° 0.3 mm 0 mps 649 mmHg 97%
    08:00 +17°C° 0.3 mm 0 mps 649 mmHg 97%
    09:00 +18°C° 0.3 mm 0 mps 650 mmHg 95%
    10:00 +20°C° 0.3 mm 0 mps 650 mmHg 92%
    11:00 +21°C° 0.3 mm 0 mps 651 mmHg 90%
    12:00 +23°C° 0.2 mm 1 mps 650 mmHg 87%
    13:00 +24°C° 0.2 mm 1 mps 650 mmHg 84%
    14:00 +24°C° 0.2 mm 1 mps 649 mmHg 80%
    15:00 +24°C° 1 mm 1 mps 649 mmHg 84%
    16:00 +23°C° 1 mm 1 mps 648 mmHg 87%
    17:00 +23°C° 1 mm 1 mps 648 mmHg 91%
    18:00 +22°C° 1 mm 1 mps 648 mmHg 93%
    19:00 +19°C° 1 mm 0 mps 648 mmHg 95%
    20:00 +18°C° 1 mm 0 mps 649 mmHg 97%
    21:00 +18°C° 0.7 mm 0 mps 649 mmHg 97%
    22:00 +18°C° 0.7 mm 0 mps 649 mmHg 97%
    23:00 +19°C° 0.7 mm 1 mps 650 mmHg 97%

    Day after tomorrow, 25 February, Monday

    Time Temperature Precipitation Wind Pressure Humidity
    00:00 +19°C° 1.3 mm 1 mps 649 mmHg 98%
    01:00 +19°C° 1.3 mm 1 mps 649 mmHg 98%
    02:00 +19°C° 1.3 mm 1 mps 648 mmHg 98%
    03:00 +19°C° 0.9 mm 1 mps 648 mmHg 98%
    04:00 +19°C° 0.9 mm 1 mps 648 mmHg 98%
    05:00 +17°C° 0.9 mm 0 mps 648 mmHg 98%
    06:00 +19°C° 0.2 mm 1 mps 648 mmHg 98%
    07:00 +19°C° 0.2 mm 1 mps 649 mmHg 97%
    08:00 +20°C° 0.2 mm 1 mps 649 mmHg 97%
    09:00 +20°C° 0.4 mm 1 mps 650 mmHg 96%
    10:00 +21°C° 0.4 mm 1 mps 650 mmHg 94%
    11:00 +21°C° 0.4 mm 2 mps 650 mmHg 93%
    12:00 +21°C° 0.4 mm 2 mps 650 mmHg 91%
    13:00 +23°C° 0.4 mm 2 mps 649 mmHg 89%
    14:00 +23°C° 0.4 mm 1 mps 649 mmHg 87%
    15:00 +23°C° 0.7 mm 1 mps 648 mmHg 88%
    16:00 +23°C° 0.7 mm 1 mps 648 mmHg 89%
    17:00 +21°C° 0.7 mm 0 mps 647 mmHg 90%
    18:00 +20°C° 0.5 mm 0 mps 648 mmHg 92%
    19:00 +19°C° 0.5 mm 0 mps 648 mmHg 93%
    20:00 +18°C° 0.5 mm 0 mps 648 mmHg 94%
    21:00 +18°C° 0.1 mm 0 mps 649 mmHg 94%
    22:00 +17°C° 0.1 mm 0 mps 649 mmHg 94%
    23:00 +17°C° 0.1 mm 0 mps 649 mmHg 94%

    26 February, Tuesday

    Time Temperature Precipitation Wind Pressure Humidity
    00:00 +17°C° 0.1 mm 0 mps 649 mmHg 95%
    01:00 +17°C° 0.1 mm 0 mps 648 mmHg 95%
    02:00 +17°C° 0.1 mm 0 mps 648 mmHg 95%
    03:00 +16°C° 0 mm 0 mps 648 mmHg 96%
    04:00 +16°C° 0 mm 0 mps 647 mmHg 96%
    05:00 +16°C° 0 mm 0 mps 647 mmHg 96%
    06:00 +17°C° 0 mm 0 mps 648 mmHg 95%
    07:00 +18°C° 0 mm 0 mps 649 mmHg 95%
    08:00 +19°C° 0 mm 0 mps 649 mmHg 94%
    09:00 +22°C° 0.9 mm 1 mps 650 mmHg 91%
    10:00 +23°C° 0.9 mm 1 mps 650 mmHg 89%
    11:00 +24°C° 0.9 mm 1 mps 650 mmHg 87%
    12:00 +25°C° 1.7 mm 1 mps 649 mmHg 87%
    13:00 +25°C° 1.7 mm 1 mps 649 mmHg 86%
    14:00 +25°C° 1.7 mm 1 mps 648 mmHg 86%
    15:00 +25°C° 1.5 mm 1 mps 647 mmHg 88%
    16:00 +24°C° 1.5 mm 1 mps 647 mmHg 89%
    17:00 +24°C° 1.5 mm 1 mps 647 mmHg 91%
    18:00 +23°C° 1 mm 1 mps 647 mmHg 92%
    19:00 +21°C° 1 mm 1 mps 647 mmHg 92%
    20:00 +20°C° 1 mm 1 mps 647 mmHg 93%
    21:00 +20°C° 0 mm 1 mps 648 mmHg 94%
    22:00 +19°C° 0 mm 1 mps 648 mmHg 94%
    23:00 +19°C° 0 mm 1 mps 648 mmHg 95%

    27 February, Wednesday

    Time Temperature Precipitation Wind Pressure Humidity
    00:00 +17°C° 0 mm 0 mps 648 mmHg 95%
    01:00 +16°C° 0 mm 0 mps 647 mmHg 96%
    02:00 +16°C° 0 mm 0 mps 647 mmHg 96%
    03:00 +16°C° 0 mm 0 mps 647 mmHg 96%
    04:00 +16°C° 0 mm 0 mps 647 mmHg 96%
    05:00 +18°C° 0 mm 1 mps 647 mmHg 96%
    06:00 +19°C° 0 mm 1 mps 647 mmHg 96%
    07:00 +19°C° 0 mm 1 mps 648 mmHg 96%
    08:00 +20°C° 0 mm 1 mps 649 mmHg 95%
    09:00 +22°C° 0 mm 1 mps 649 mmHg 88%
    10:00 +24°C° 0 mm 1 mps 650 mmHg 81%
    11:00 +26°C° 0 mm 2 mps 650 mmHg 74%
    12:00 +26°C° 0 mm 2 mps 650 mmHg 71%
    13:00 +27°C° 0 mm 2 mps 649 mmHg 68%
    14:00 +28°C° 0 mm 2 mps 648 mmHg 65%
    15:00 +28°C° 0 mm 1 mps 648 mmHg 70%
    16:00 +27°C° 0 mm 1 mps 648 mmHg 74%
    17:00 +27°C° 0 mm 1 mps 647 mmHg 78%
    18:00 +25°C° 0.2 mm 1 mps 648 mmHg 83%
    19:00 +23°C° 0.2 mm 1 mps 648 mmHg 87%
    20:00 +22°C° 0.2 mm 1 mps 648 mmHg 92%
    21:00 +19°C° 0.4 mm 0 mps 648 mmHg 92%
    22:00 +19°C° 0.4 mm 0 mps 648 mmHg 93%
    23:00 +19°C° 0.4 mm 0 mps 649 mmHg 93%

    28 February, Thursday

    Time Temperature Precipitation Wind Pressure Humidity
    00:00 +19°C° 0 mm 0 mps 648 mmHg 94%
    01:00 +18°C° 0 mm 0 mps 648 mmHg 94%
    02:00 +18°C° 0 mm 0 mps 647 mmHg 95%
    03:00 +18°C° 0 mm 0 mps 647 mmHg 95%
    04:00 +17°C° 0 mm 0 mps 647 mmHg 95%
    05:00 +19°C° 0 mm 1 mps 647 mmHg 96%
    06:00 +20°C° 0.1 mm 1 mps 648 mmHg 95%
    07:00 +21°C° 0.1 mm 1 mps 649 mmHg 94%
    08:00 +22°C° 0.1 mm 1 mps 649 mmHg 93%
    09:00 +23°C° 1.3 mm 1 mps 650 mmHg 90%
    10:00 +25°C° 1.3 mm 2 mps 650 mmHg 86%
    11:00 +26°C° 1.3 mm 2 mps 650 mmHg 83%
    12:00 +27°C° 0.9 mm 2 mps 650 mmHg 79%
    13:00 +27°C° 0.9 mm 1 mps 649 mmHg 76%
    14:00 +27°C° 0.9 mm 1 mps 649 mmHg 72%
    15:00 +27°C° 0.7 mm 1 mps 648 mmHg 77%
    16:00 +27°C° 0.7 mm 1 mps 648 mmHg 81%
    17:00 +26°C° 0.7 mm 1 mps 648 mmHg 85%
    18:00 +25°C° 2.1 mm 1 mps 648 mmHg 87%
    19:00 +23°C° 2.1 mm 1 mps 648 mmHg 90%
    20:00 +21°C° 2.1 mm 1 mps 648 mmHg 92%
    21:00 +21°C° 0.2 mm 1 mps 648 mmHg 92%
    22:00 +21°C° 0.2 mm 1 mps 648 mmHg 93%
    23:00 +20°C° 0.2 mm 1 mps 648 mmHg 93%
    Show more